Location: Beetenbrück
(52.8113°N, 9.5946°E)
Time: 17:16:36
(UTC+00:00)

Helios 1A Rocket - Pass Details

Date: 14 April 2026
Orbit: 406 x 416 km, 98.3° (Epoch: 9 May)

Event Time Altitude Azimuth Distance (km) Brightness Sun altitude
Rises 19:24:36 0° 15° (NNE) 2,401 6.3 -9.8°
Reaches altitude 10° 19:26:37 10° 16° (NNE) 1,528 5.3 -10.1°
Maximum altitude 19:29:53 87° 100° (E) 431 2.2 -10.5°
Drops below altitude 10° 19:33:07 10° 196° (SSW) 1,506 4.9 -10.9°
Sets 19:35:05 0° 196° (SSW) 2,362 5.9 -11.2°
